TimeEDT,TemperatureF,Dew PointF,Humidity,Sea Level PressureIn,VisibilityMPH,Wind Direction,Wind SpeedMPH,Gust SpeedMPH,PrecipitationIn,Events,Conditions,WindDirDegrees,DateUTC
12:15 AM,72.1,72.1,100,30.16,7.0,Calm,Calm,-,N/A,,Clear,0,2013-08-21 04:15:00
12:35 AM,71.2,71.2,100,30.16,7.0,SE,3.5,-,N/A,,Clear,140,2013-08-21 04:35:00
12:55 AM,71.2,71.2,100,30.17,7.0,Calm,Calm,-,N/A,,Clear,0,2013-08-21 04:55:00
1:15 AM,70.9,70.9,100,30.17,7.0,Calm,Calm,-,N/A,,Clear,0,2013-08-21 05:15:00
1:35 AM,70.5,70.5,100,30.17,7.0,Calm,Calm,-,N/A,,Clear,0,2013-08-21 05:35:00
1:55 AM,70.7,70.7,100,30.17,10.0,Calm,Calm,-,N/A,,Clear,0,2013-08-21 05:55:00
2:15 AM,71.1,71.1,100,30.17,7.0,Calm,Calm,-,N/A,,Clear,0,2013-08-21 06:15:00
2:35 AM,70.9,70.9,100,30.17,7.0,Calm,Calm,-,N/A,,Clear,0,2013-08-21 06:35:00
2:55 AM,70.3,70.3,100,30.17,7.0,Calm,Calm,-,N/A,,Clear,0,2013-08-21 06:55:00
3:15 AM,70.0,70.0,100,30.17,5.0,Calm,Calm,-,N/A,,Clear,0,2013-08-21 07:15:00
3:35 AM,70.5,70.5,100,30.17,5.0,Calm,Calm,-,N/A,,Clear,0,2013-08-21 07:35:00
3:55 AM,69.8,69.8,100,30.16,5.0,Calm,Calm,-,N/A,,Clear,0,2013-08-21 07:55:00
4:15 AM,69.3,69.3,100,30.16,5.0,Calm,Calm,-,N/A,,Clear,0,2013-08-21 08:15:00
4:35 AM,69.1,69.1,100,30.16,5.0,Calm,Calm,-,N/A,,Clear,0,2013-08-21 08:35:00
4:55 AM,68.4,68.4,100,30.16,3.0,Calm,Calm,-,N/A,,Scattered Clouds,0,2013-08-21 08:55:00
5:15 AM,68.2,68.2,100,30.16,10.0,Calm,Calm,-,N/A,,Clear,0,2013-08-21 09:15:00
5:35 AM,68.9,68.9,100,30.17,7.0,Calm,Calm,-,N/A,,Clear,0,2013-08-21 09:35:00
5:55 AM,69.3,69.3,100,30.17,5.0,Calm,Calm,-,N/A,,Clear,0,2013-08-21 09:55:00
6:15 AM,68.2,68.2,100,30.17,7.0,Calm,Calm,-,N/A,,Clear,0,2013-08-21 10:15:00
6:35 AM,67.6,67.6,100,30.18,10.0,Calm,Calm,-,N/A,,Clear,0,2013-08-21 10:35:00
6:55 AM,68.4,68.4,100,30.19,7.0,Calm,Calm,-,N/A,,Clear,0,2013-08-21 10:55:00
7:15 AM,68.9,68.9,100,30.19,10.0,Calm,Calm,-,N/A,,Clear,0,2013-08-21 11:15:00
7:35 AM,69.8,69.8,100,30.19,10.0,Calm,Calm,-,N/A,,Clear,0,2013-08-21 11:35:00
7:55 AM,70.9,70.9,100,30.20,10.0,Calm,Calm,-,N/A,,Clear,0,2013-08-21 11:55:00
8:15 AM,72.3,71.8,98,30.20,10.0,Calm,Calm,-,N/A,,Clear,0,2013-08-21 12:15:00
8:35 AM,73.6,72.5,96,30.20,10.0,Calm,Calm,-,N/A,,Clear,0,2013-08-21 12:35:00
8:55 AM,74.7,72.7,94,30.20,10.0,Calm,Calm,-,N/A,,Clear,0,2013-08-21 12:55:00
9:15 AM,75.4,73.0,92,30.20,10.0,Calm,Calm,-,N/A,,Clear,0,2013-08-21 13:15:00
9:35 AM,77.4,73.2,87,30.20,10.0,SSW,4.6,-,N/A,,Clear,200,2013-08-21 13:35:00
9:55 AM,79.2,73.2,82,30.20,10.0,SW,4.6,-,N/A,,Clear,220,2013-08-21 13:55:00
10:15 AM,80.8,73.4,78,30.20,10.0,SW,8.1,-,N/A,,Clear,230,2013-08-21 14:15:00
10:35 AM,81.5,72.9,75,30.20,10.0,WSW,4.6,-,N/A,,Clear,240,2013-08-21 14:35:00
10:55 AM,83.3,71.8,68,30.20,10.0,SW,5.8,-,N/A,,Clear,230,2013-08-21 14:55:00
11:15 AM,83.5,70.7,65,30.20,10.0,South,8.1,-,N/A,,Clear,170,2013-08-21 15:15:00
11:35 AM,84.2,70.3,63,30.20,10.0,SSW,6.9,-,N/A,,Scattered Clouds,210,2013-08-21 15:35:00
11:55 AM,84.7,70.9,63,30.19,10.0,SW,5.8,-,N/A,,Scattered Clouds,220,2013-08-21 15:55:00
12:15 PM,86.2,71.2,61,30.19,10.0,SW,5.8,-,N/A,,Scattered Clouds,220,2013-08-21 16:15:00
12:35 PM,85.5,70.5,61,30.19,10.0,SSW,8.1,-,N/A,,Scattered Clouds,200,2013-08-21 16:35:00
12:55 PM,86.2,70.3,59,30.18,10.0,SSW,5.8,-,N/A,,Scattered Clouds,210,2013-08-21 16:55:00
1:15 PM,86.0,71.2,61,30.18,10.0,SSW,3.5,-,N/A,,Mostly Cloudy,210,2013-08-21 17:15:00
1:35 PM,86.4,70.5,59,30.17,10.0,SSW,5.8,-,N/A,,Scattered Clouds,210,2013-08-21 17:35:00
1:55 PM,87.4,70.0,56,30.16,10.0,South,8.1,-,N/A,,Scattered Clouds,190,2013-08-21 17:55:00
2:15 PM,87.1,71.1,59,30.15,10.0,South,9.2,-,N/A,,Scattered Clouds,190,2013-08-21 18:15:00
2:35 PM,88.3,70.0,54,30.14,10.0,South,4.6,-,N/A,,Scattered Clouds,180,2013-08-21 18:35:00
2:55 PM,88.0,70.0,55,30.13,10.0,WSW,4.6,-,N/A,,Scattered Clouds,250,2013-08-21 18:55:00
3:15 PM,88.5,69.3,53,30.12,10.0,SSE,4.6,-,N/A,,Scattered Clouds,160,2013-08-21 19:15:00
3:35 PM,88.3,70.7,56,30.11,10.0,SSE,9.2,-,N/A,,Scattered Clouds,160,2013-08-21 19:35:00
3:55 PM,88.0,70.7,56,30.11,10.0,South,4.6,-,N/A,,Scattered Clouds,190,2013-08-21 19:55:00
4:15 PM,88.2,71.1,57,30.10,10.0,SSW,4.6,-,N/A,,Clear,200,2013-08-21 20:15:00
4:35 PM,86.9,71.6,60,30.10,10.0,SSE,3.5,-,N/A,,Clear,150,2013-08-21 20:35:00
4:55 PM,86.9,71.8,61,30.09,10.0,South,4.6,-,N/A,,Scattered Clouds,180,2013-08-21 20:55:00
5:15 PM,86.9,72.3,62,30.10,10.0,South,5.8,-,N/A,,Scattered Clouds,170,2013-08-21 21:15:00
5:35 PM,86.2,73.0,65,30.09,10.0,South,6.9,-,N/A,,Mostly Cloudy,170,2013-08-21 21:35:00
5:55 PM,87.3,72.7,62,30.09,10.0,South,5.8,-,N/A,,Scattered Clouds,170,2013-08-21 21:55:00
6:15 PM,86.4,72.9,64,30.09,10.0,South,6.9,-,N/A,,Clear,180,2013-08-21 22:15:00
6:35 PM,85.1,73.4,68,30.09,10.0,SSW,5.8,-,N/A,,Scattered Clouds,200,2013-08-21 22:35:00
6:55 PM,81.1,74.3,80,30.09,10.0,SW,6.9,-,N/A,Rain,Light Rain,230,2013-08-21 22:55:00
7:15 PM,79.7,74.8,85,30.09,10.0,WSW,3.5,-,N/A,,Scattered Clouds,250,2013-08-21 23:15:00
7:35 PM,78.8,75.6,90,30.09,10.0,WSW,3.5,-,N/A,,Clear,250,2013-08-21 23:35:00
7:55 PM,78.8,76.3,92,30.09,10.0,WSW,3.5,-,N/A,,Scattered Clouds,250,2013-08-21 23:55:00
8:15 PM,78.1,76.6,95,30.09,10.0,Calm,Calm,-,N/A,,Scattered Clouds,0,2013-08-22 00:15:00
8:35 PM,77.9,76.5,95,30.09,10.0,Calm,Calm,-,N/A,,Clear,0,2013-08-22 00:35:00
8:55 PM,77.9,76.5,95,30.09,10.0,Calm,Calm,-,N/A,,Scattered Clouds,0,2013-08-22 00:55:00
9:15 PM,77.4,74.8,92,30.09,10.0,NNW,4.6,-,N/A,,Scattered Clouds,330,2013-08-22 01:15:00
9:35 PM,77.0,70.7,81,30.13,10.0,WNW,13.8,19.6,N/A,,Mostly Cloudy,290,2013-08-22 01:35:00
9:55 PM,75.7,69.8,82,30.13,10.0,WNW,6.9,-,N/A,,Overcast,300,2013-08-22 01:55:00
10:15 PM,72.9,72.3,98,30.11,1.0,South,6.9,-,N/A,Rain,Heavy Rain,180,2013-08-22 02:15:00
10:35 PM,72.5,72.3,99,30.10,10.0,South,4.6,-,N/A,Rain,Light Rain,190,2013-08-22 02:35:00
10:55 PM,72.5,72.5,100,30.09,7.0,SSW,5.8,-,N/A,Rain,Rain,210,2013-08-22 02:55:00
11:15 PM,73.4,72.5,97,30.08,10.0,SSW,4.6,-,N/A,,Mostly Cloudy,210,2013-08-22 03:15:00
11:35 PM,73.0,72.5,98,30.10,10.0,East,4.6,-,N/A,Rain,Light Rain,100,2013-08-22 03:35:00
11:55 PM,73.0,73.0,100,30.12,10.0,SSE,6.9,-,N/A,,Light Drizzle,150,2013-08-22 03:55:00